Overview Statistics Trail Chart Weather Telemetry Raw packets
 

This is the latest recevied weather packets stored in our database for station/object W0CHP-13. If no packets are shown the sender has not sent any weather packets the latest 10 day(s).

<< 2 3 4 5 6 7 8 >>
Time Temp. Humidity Pressure Rain* Wind** Luminosity Snow
1788640158 29.44° C 64% 1015.1 hPa 0 mm - 507 W/m² -
1788639556 28.89° C 66% 1015.1 hPa 0 mm - 571 W/m² -
1788638955 28.89° C 68% 1015.1 hPa 0 mm - 601 W/m² -
1788638356 28.89° C 67% 1015.4 hPa 0 mm - 332 W/m² -
1788637759 28.33° C 70% 1015.4 hPa 0 mm - 794 W/m² -
1788637156 28.33° C 69% 1015.4 hPa 0 mm - 564 W/m² -
1788636557 28.33° C 69% 1015.8 hPa 0 mm - 670 W/m² -
1788635955 27.78° C 68% 1015.8 hPa 0 mm - 681 W/m² -
1788635357 27.78° C 71% 1015.8 hPa 0 mm - 611 W/m² -
1788634756 27.22° C 73% 1015.8 hPa 0 mm - 667 W/m² -
1788634156 27.22° C 73% 1015.8 hPa 0 mm - 668 W/m² -
1788633558 26.67° C 77% 1016.1 hPa 0 mm - 344 W/m² -
1788632957 26.11° C 78% 1016.1 hPa 0 mm - 378 W/m² -
1788632356 26.11° C 77% 1016.1 hPa 0 mm - 330 W/m² -
1788631757 25.56° C 79% 1016.1 hPa 0 mm - 302 W/m² -
1788631156 25° C 81% 1016.1 hPa 0 mm - 233 W/m² -
1788630557 25° C 81% 1016.1 hPa 0 mm - 142 W/m² -
1788629959 25° C 82% 1016.2 hPa 0 mm - 148 W/m² -
1788629357 25° C 84% 1016.5 hPa 0 mm - 160 W/m² -
1788628755 25° C 83% 1016.5 hPa 0 mm - 174 W/m² -
1788628158 24.44° C 83% 1016.5 hPa 0 mm - 117 W/m² -
1788627556 25° C 84% 1016.5 hPa 0 mm - 152 W/m² -
1788626957 24.44° C 84% 1016.5 hPa 0 mm - 164 W/m² -
1788626359 24.44° C 84% 1016.5 hPa 0 mm - 142 W/m² -
1788625756 24.44° C 85% 1016.5 hPa 0 mm - 116 W/m² -

* Rain latest hour (hover to see other rain measurements)
** Current wind speed in m/s (hover to see current wind gust speed)